Time,TemperatureF,DewpointF,PressureIn,WindDirection,WindDirectionDegrees,WindSpeedMPH,WindSpeedGustMPH,Humidity,HourlyPrecipIn,Conditions,Clouds,dailyrainin,SoftwareType,DateUTC
2013-02-03 00:02:00,48.0,-99.9,-100.00,North,-999,-999.0,-999.0,-999,-99.99,,,-99.99,,2013-02-03 07:02:00,
2013-02-03 00:32:00,47.0,-99.9,-100.00,North,-999,-999.0,-999.0,-999,-99.99,,,-99.99,,2013-02-03 07:32:00,
2013-02-03 00:53:00,48.0,-99.9,-100.00,North,-999,-999.0,-999.0,-999,-99.99,,,-99.99,,2013-02-03 07:53:00,
2013-02-03 01:02:00,48.0,-99.9,-100.00,North,-999,-999.0,-999.0,-999,-99.99,,,-99.99,,2013-02-03 08:02:00,
2013-02-03 01:22:00,49.0,13.0,-100.00,North,-999,-999.0,-999.0,23,-99.99,,,-99.99,,2013-02-03 08:22:00,
2013-02-03 01:32:00,49.0,13.0,-100.00,North,-999,-999.0,-999.0,23,-99.99,,,-99.99,,2013-02-03 08:32:00,
2013-02-03 01:42:00,49.0,13.0,-100.00,North,-999,-999.0,-999.0,23,-99.99,,,-99.99,,2013-02-03 08:42:00,
2013-02-03 01:52:00,49.0,13.0,-100.00,North,-999,-999.0,-999.0,23,-99.99,,,-99.99,,2013-02-03 08:52:00,
2013-02-03 02:03:00,50.0,-99.9,-100.00,North,-999,-999.0,-999.0,-999,-99.99,,,-99.99,,2013-02-03 09:03:00,
2013-02-03 02:11:00,-999.0,-99.9,-100.00,SSE,163,1.0,-999.0,-999,-99.99,,,-99.99,,2013-02-03 09:11:00,
2013-02-03 02:22:00,50.0,-99.9,-100.00,North,-999,-999.0,-999.0,-999,-99.99,,,-99.99,,2013-02-03 09:22:00,
2013-02-03 02:51:00,49.0,14.0,-100.00,North,-999,-999.0,-999.0,24,-99.99,,,-99.99,,2013-02-03 09:51:00,
2013-02-03 03:01:00,49.0,14.0,-100.00,North,-999,-999.0,-999.0,24,-99.99,,,-99.99,,2013-02-03 10:01:00,
2013-02-03 03:22:00,48.0,-99.9,-100.00,North,-999,-999.0,-999.0,-999,-99.99,,,-99.99,,2013-02-03 10:22:00,
2013-02-03 03:32:00,48.0,-99.9,-100.00,North,-999,-999.0,-999.0,-999,-99.99,,,-99.99,,2013-02-03 10:32:00,
2013-02-03 03:42:00,49.0,-99.9,-100.00,North,-999,-999.0,-999.0,-999,-99.99,,,-99.99,,2013-02-03 10:42:00,
2013-02-03 03:53:00,-999.0,-99.9,-100.00,SSE,163,1.0,-999.0,-999,-99.99,,,-99.99,,2013-02-03 10:53:00,
2013-02-03 04:02:00,-999.0,-99.9,-100.00,SSE,163,1.0,-999.0,-999,-99.99,,,-99.99,,2013-02-03 11:02:00,
2013-02-03 04:11:00,50.0,-99.9,-100.00,North,-999,-999.0,-999.0,-999,-99.99,,,-99.99,,2013-02-03 11:11:00,
2013-02-03 04:32:00,-999.0,-99.9,-100.00,SW,230,2.0,-999.0,-999,-99.99,,,-99.99,,2013-02-03 11:32:00,
2013-02-03 04:42:00,52.0,-99.9,-100.00,North,-999,-999.0,-999.0,-999,-99.99,,,-99.99,,2013-02-03 11:42:00,
2013-02-03 04:52:00,52.0,-99.9,-100.00,North,-999,-999.0,-999.0,-999,-99.99,,,-99.99,,2013-02-03 11:52:00,
2013-02-03 05:03:00,-999.0,-99.9,-100.00,WSW,241,3.0,-999.0,-999,-99.99,,,-99.99,,2013-02-03 12:03:00,
2013-02-03 05:11:00,51.0,2.0,-100.00,North,-999,-999.0,-999.0,12,-99.99,,,-99.99,,2013-02-03 12:11:00,
2013-02-03 05:22:00,-999.0,-99.9,-100.00,West,270,4.0,-999.0,-999,-99.99,,,-99.99,,2013-02-03 12:22:00,
2013-02-03 05:33:00,-999.0,-99.9,-100.00,West,270,4.0,-999.0,-999,-99.99,,,-99.99,,2013-02-03 12:33:00,
2013-02-03 05:42:00,50.0,-99.9,-100.00,North,-999,-999.0,-999.0,-999,-99.99,,,-99.99,,2013-02-03 12:42:00,
2013-02-03 05:53:00,50.0,-99.9,-100.00,North,-999,-999.0,-999.0,-999,-99.99,,,-99.99,,2013-02-03 12:53:00,
2013-02-03 06:04:00,50.0,-99.9,-100.00,North,-999,-999.0,-999.0,-999,-99.99,,,-99.99,,2013-02-03 13:04:00,
2013-02-03 06:12:00,50.0,-99.9,-100.00,North,-999,-999.0,-999.0,-999,-99.99,,,-99.99,,2013-02-03 13:12:00,
2013-02-03 06:22:00,-999.0,-99.9,-100.00,West,270,1.0,-999.0,-999,-99.99,,,-99.99,,2013-02-03 13:22:00,
2013-02-03 06:32:00,49.0,14.0,-100.00,North,-999,-999.0,-999.0,24,-99.99,,,-99.99,,2013-02-03 13:32:00,
2013-02-03 06:41:00,49.0,14.0,-100.00,North,-999,-999.0,-999.0,24,-99.99,,,-99.99,,2013-02-03 13:41:00,
2013-02-03 07:03:00,48.0,-99.9,-100.00,North,-999,-999.0,-999.0,-999,-99.99,,,-99.99,,2013-02-03 14:03:00,
2013-02-03 07:12:00,48.0,-99.9,-100.00,North,-999,-999.0,-999.0,-999,-99.99,,,-99.99,,2013-02-03 14:12:00,
2013-02-03 07:22:00,48.0,-99.9,-100.00,North,-999,-999.0,-999.0,-999,-99.99,,,-99.99,,2013-02-03 14:22:00,
2013-02-03 07:32:00,46.0,-99.9,-100.00,North,-999,-999.0,-999.0,-999,-99.99,,,-99.99,,2013-02-03 14:32:00,
2013-02-03 07:53:00,44.0,-99.9,-100.00,North,-999,-999.0,-999.0,-999,-99.99,,,-99.99,,2013-02-03 14:53:00,
2013-02-03 08:03:00,44.0,-99.9,-100.00,North,-999,-999.0,-999.0,-999,-99.99,,,-99.99,,2013-02-03 15:03:00,
2013-02-03 08:12:00,-999.0,-99.9,-100.00,WSW,258,2.0,-999.0,-999,-99.99,,,-99.99,,2013-02-03 15:12:00,
2013-02-03 08:23:00,-999.0,-99.9,-100.00,WSW,258,2.0,-999.0,-999,-99.99,,,-99.99,,2013-02-03 15:23:00,
2013-02-03 08:33:00,43.0,-99.9,-100.00,North,-999,-999.0,-999.0,-999,-99.99,,,-99.99,,2013-02-03 15:33:00,
2013-02-03 08:42:00,40.0,-99.9,-100.00,North,-999,-999.0,-999.0,-999,-99.99,,,-99.99,,2013-02-03 15:42:00,
2013-02-03 08:52:00,39.0,-99.9,-100.00,North,-999,-999.0,-999.0,-999,-99.99,,,-99.99,,2013-02-03 15:52:00,
2013-02-03 09:03:00,-999.0,-99.9,-100.00,SSW,196,2.0,-999.0,-999,-99.99,,,-99.99,,2013-02-03 16:03:00,
2013-02-03 09:22:00,38.0,-99.9,-100.00,North,-999,-999.0,-999.0,-999,-99.99,,,-99.99,,2013-02-03 16:22:00,
2013-02-03 09:33:00,38.0,-99.9,-100.00,North,-999,-999.0,-999.0,-999,-99.99,,,-99.99,,2013-02-03 16:33:00,
2013-02-03 09:52:00,40.0,-99.9,-100.00,North,-999,-999.0,-999.0,-999,-99.99,,,-99.99,,2013-02-03 16:52:00,
2013-02-03 10:03:00,40.0,-99.9,-100.00,North,-999,-999.0,-999.0,-999,-99.99,,,-99.99,,2013-02-03 17:03:00,
2013-02-03 10:12:00,40.0,-99.9,-100.00,North,-999,-999.0,-999.0,-999,-99.99,,,-99.99,,2013-02-03 17:12:00,
2013-02-03 10:22:00,41.0,-99.9,-100.00,North,-999,-999.0,-999.0,-999,-99.99,,,-99.99,,2013-02-03 17:22:00,
2013-02-03 10:32:00,41.0,-99.9,-100.00,North,-999,-999.0,-999.0,-999,-99.99,,,-99.99,,2013-02-03 17:32:00,
2013-02-03 10:42:00,41.0,-99.9,-100.00,North,-999,-999.0,-999.0,-999,-99.99,,,-99.99,,2013-02-03 17:42:00,
2013-02-03 10:53:00,41.0,-99.9,-100.00,North,-999,-999.0,-999.0,-999,-99.99,,,-99.99,,2013-02-03 17:53:00,
2013-02-03 11:42:00,42.0,-99.9,-100.00,North,-999,-999.0,-999.0,-999,-99.99,,,-99.99,,2013-02-03 18:42:00,
2013-02-03 11:52:00,42.0,-99.9,-100.00,North,-999,-999.0,-999.0,-999,-99.99,,,-99.99,,2013-02-03 18:52:00,
2013-02-03 12:03:00,42.0,-99.9,-100.00,North,-999,-999.0,-999.0,-999,-99.99,,,-99.99,,2013-02-03 19:03:00,
2013-02-03 12:11:00,42.0,-99.9,-100.00,North,-999,-999.0,-999.0,-999,-99.99,,,-99.99,,2013-02-03 19:11:00,
2013-02-03 12:23:00,42.0,-99.9,-100.00,North,-999,-999.0,-999.0,-999,-99.99,,,-99.99,,2013-02-03 19:23:00,
2013-02-03 12:33:00,45.0,-99.9,-100.00,North,-999,-999.0,-999.0,-999,-99.99,,,-99.99,,2013-02-03 19:33:00,
2013-02-03 12:52:00,-999.0,-99.9,-100.00,ESE,112,2.0,-999.0,-999,-99.99,,,-99.99,,2013-02-03 19:52:00,
2013-02-03 13:02:00,-999.0,-99.9,-100.00,ESE,112,2.0,-999.0,-999,-99.99,,,-99.99,,2013-02-03 20:02:00,
2013-02-03 13:11:00,45.0,33.0,-100.00,North,-999,-999.0,-999.0,65,-99.99,,,-99.99,,2013-02-03 20:11:00,
2013-02-03 13:21:00,45.0,33.0,-100.00,North,-999,-999.0,-999.0,65,-99.99,,,-99.99,,2013-02-03 20:21:00,
2013-02-03 13:33:00,45.0,-99.9,-100.00,North,-999,-999.0,-999.0,-999,-99.99,,,-99.99,,2013-02-03 20:33:00,
2013-02-03 13:42:00,45.0,-99.9,-100.00,North,-999,-999.0,-999.0,-999,-99.99,,,-99.99,,2013-02-03 20:42:00,
2013-02-03 13:52:00,45.0,-99.9,-100.00,North,-999,-999.0,-999.0,-999,-99.99,,,-99.99,,2013-02-03 20:52:00,
2013-02-03 14:04:00,46.0,-99.9,-100.00,North,-999,-999.0,-999.0,-999,-99.99,,,-99.99,,2013-02-03 21:04:00,
2013-02-03 14:11:00,46.0,-99.9,-100.00,North,-999,-999.0,-999.0,-999,-99.99,,,-99.99,,2013-02-03 21:11:00,
2013-02-03 14:22:00,46.0,-99.9,-100.00,North,-999,-999.0,-999.0,-999,-99.99,,,-99.99,,2013-02-03 21:22:00,
2013-02-03 14:33:00,46.0,-99.9,-100.00,North,-999,-999.0,-999.0,-999,-99.99,,,-99.99,,2013-02-03 21:33:00,
2013-02-03 14:43:00,46.0,-99.9,-100.00,North,-999,-999.0,-999.0,-999,-99.99,,,-99.99,,2013-02-03 21:43:00,
2013-02-03 14:52:00,45.0,-99.9,-100.00,NW,326,1.0,-999.0,-999,-99.99,,,-99.99,,2013-02-03 21:52:00,
2013-02-03 15:02:00,45.0,-99.9,-100.00,NW,326,1.0,-999.0,-999,-99.99,,,-99.99,,2013-02-03 22:02:00,
2013-02-03 15:11:00,45.0,-99.9,-100.00,NW,326,1.0,-999.0,-999,-99.99,,,-99.99,,2013-02-03 22:11:00,
2013-02-03 15:22:00,45.0,-99.9,-100.00,NW,326,1.0,-999.0,-999,-99.99,,,-99.99,,2013-02-03 22:22:00,
2013-02-03 15:32:00,46.0,-99.9,-100.00,North,-999,-999.0,-999.0,-999,-99.99,,,-99.99,,2013-02-03 22:32:00,
2013-02-03 15:42:00,46.0,-99.9,-100.00,North,-999,-999.0,-999.0,-999,-99.99,,,-99.99,,2013-02-03 22:42:00,
2013-02-03 15:52:00,46.0,-99.9,-100.00,North,-999,-999.0,-999.0,-999,-99.99,,,-99.99,,2013-02-03 22:52:00,
2013-02-03 16:02:00,45.0,-99.9,-100.00,North,-999,-999.0,-999.0,-999,-99.99,,,-99.99,,2013-02-03 23:02:00,
2013-02-03 16:12:00,45.0,-99.9,-100.00,North,-999,-999.0,-999.0,-999,-99.99,,,-99.99,,2013-02-03 23:12:00,
2013-02-03 16:21:00,45.0,32.0,-100.00,North,-999,-999.0,-999.0,62,-99.99,,,-99.99,,2013-02-03 23:21:00,
2013-02-03 16:32:00,45.0,32.0,-100.00,North,-999,-999.0,-999.0,62,-99.99,,,-99.99,,2013-02-03 23:32:00,
2013-02-03 16:41:00,45.0,32.0,-100.00,North,-999,-999.0,-999.0,62,-99.99,,,-99.99,,2013-02-03 23:41:00,
2013-02-03 17:22:00,-999.0,-99.9,-100.00,West,281,1.0,-999.0,-999,-99.99,,,-99.99,,2013-02-04 00:22:00,
2013-02-03 17:32:00,-999.0,-99.9,-100.00,West,281,1.0,-999.0,-999,-99.99,,,-99.99,,2013-02-04 00:32:00,
2013-02-03 17:42:00,-999.0,-99.9,-100.00,West,281,1.0,-999.0,-999,-99.99,,,-99.99,,2013-02-04 00:42:00,
2013-02-03 17:52:00,-999.0,-99.9,-100.00,West,281,1.0,-999.0,-999,-99.99,,,-99.99,,2013-02-04 00:52:00,
2013-02-03 18:01:00,-999.0,-99.9,-100.00,West,281,1.0,-999.0,-999,-99.99,,,-99.99,,2013-02-04 01:01:00,
2013-02-03 18:11:00,42.0,-99.9,-100.00,North,-999,-999.0,-999.0,-999,-99.99,,,-99.99,,2013-02-04 01:11:00,
2013-02-03 18:22:00,42.0,-99.9,-100.00,North,-999,-999.0,-999.0,-999,-99.99,,,-99.99,,2013-02-04 01:22:00,
2013-02-03 18:32:00,42.0,-99.9,-100.00,North,-999,-999.0,-999.0,-999,-99.99,,,-99.99,,2013-02-04 01:32:00,
2013-02-03 18:41:00,41.0,30.0,-100.00,North,-999,-999.0,-999.0,64,-99.99,,,-99.99,,2013-02-04 01:41:00,
2013-02-03 18:51:00,41.0,30.0,-100.00,North,-999,-999.0,-999.0,64,-99.99,,,-99.99,,2013-02-04 01:51:00,
2013-02-03 19:01:00,41.0,30.0,-100.00,North,-999,-999.0,-999.0,64,-99.99,,,-99.99,,2013-02-04 02:01:00,
2013-02-03 19:11:00,42.0,-99.9,-100.00,North,-999,-999.0,-999.0,-999,-99.99,,,-99.99,,2013-02-04 02:11:00,
2013-02-03 19:22:00,-999.0,-99.9,-100.00,East,90,1.0,-999.0,-999,-99.99,,,-99.99,,2013-02-04 02:22:00,
2013-02-03 19:32:00,-999.0,-99.9,-100.00,East,90,1.0,-999.0,-999,-99.99,,,-99.99,,2013-02-04 02:32:00,
2013-02-03 19:42:00,41.0,-99.9,-100.00,North,-999,-999.0,-999.0,-999,-99.99,,,-99.99,,2013-02-04 02:42:00,
2013-02-03 19:52:00,41.0,-99.9,-100.00,North,-999,-999.0,-999.0,-999,-99.99,,,-99.99,,2013-02-04 02:52:00,
2013-02-03 20:02:00,41.0,-99.9,-100.00,North,-999,-999.0,-999.0,-999,-99.99,,,-99.99,,2013-02-04 03:02:00,
2013-02-03 20:11:00,-999.0,-99.9,-100.00,SW,225,2.0,-999.0,-999,-99.99,,,-99.99,,2013-02-04 03:11:00,
2013-02-03 20:22:00,-999.0,-99.9,-100.00,SW,225,2.0,-999.0,-999,-99.99,,,-99.99,,2013-02-04 03:22:00,
2013-02-03 20:32:00,41.0,-99.9,-100.00,North,-999,-999.0,-999.0,-999,-99.99,,,-99.99,,2013-02-04 03:32:00,
2013-02-03 20:42:00,41.0,-99.9,-100.00,North,-999,-999.0,-999.0,-999,-99.99,,,-99.99,,2013-02-04 03:42:00,
2013-02-03 20:52:00,41.0,-99.9,-100.00,North,-999,-999.0,-999.0,-999,-99.99,,,-99.99,,2013-02-04 03:52:00,
2013-02-03 21:02:00,41.0,-99.9,-100.00,North,-999,-999.0,-999.0,-999,-99.99,,,-99.99,,2013-02-04 04:02:00,
2013-02-03 21:22:00,-999.0,-99.9,-100.00,South,185,2.0,-999.0,-999,-99.99,,,-99.99,,2013-02-04 04:22:00,
2013-02-03 21:31:00,40.0,29.0,-100.00,North,-999,-999.0,-999.0,64,-99.99,,,-99.99,,2013-02-04 04:31:00,
2013-02-03 21:41:00,40.0,29.0,-100.00,North,-999,-999.0,-999.0,64,-99.99,,,-99.99,,2013-02-04 04:41:00,
2013-02-03 21:52:00,39.0,-99.9,-100.00,North,-999,-999.0,-999.0,-999,-99.99,,,-99.99,,2013-02-04 04:52:00,
2013-02-03 22:04:00,39.0,-99.9,-100.00,North,-999,-999.0,-999.0,-999,-99.99,,,-99.99,,2013-02-04 05:04:00,
2013-02-03 22:12:00,39.0,-99.9,-100.00,North,-999,-999.0,-999.0,-999,-99.99,,,-99.99,,2013-02-04 05:12:00,
2013-02-03 22:22:00,39.0,-99.9,-100.00,North,-999,-999.0,-999.0,-999,-99.99,,,-99.99,,2013-02-04 05:22:00,
2013-02-03 22:33:00,39.0,-99.9,-100.00,North,-999,-999.0,-999.0,-999,-99.99,,,-99.99,,2013-02-04 05:33:00,
2013-02-03 22:42:00,39.0,-99.9,-100.00,North,-999,-999.0,-999.0,-999,-99.99,,,-99.99,,2013-02-04 05:42:00,
2013-02-03 22:52:00,-999.0,-99.9,-100.00,South,185,3.0,-999.0,-999,-99.99,,,-99.99,,2013-02-04 05:52:00,
2013-02-03 23:02:00,39.0,-99.9,-100.00,North,-999,-999.0,-999.0,-999,-99.99,,,-99.99,,2013-02-04 06:02:00,
2013-02-03 23:11:00,-999.0,-99.9,-100.00,South,191,3.0,-999.0,-999,-99.99,,,-99.99,,2013-02-04 06:11:00,
2013-02-03 23:22:00,38.0,-99.9,-100.00,North,-999,-999.0,-999.0,-999,-99.99,,,-99.99,,2013-02-04 06:22:00,
2013-02-03 23:32:00,38.0,-99.9,-100.00,North,-999,-999.0,-999.0,-999,-99.99,,,-99.99,,2013-02-04 06:32:00,
2013-02-03 23:52:00,39.0,-99.9,-100.00,North,-999,-999.0,-999.0,-999,-99.99,,,-99.99,,2013-02-04 06:52:00,